Tracking 24122 objects as of 7-Dec-2021
HD Live streaming from Space Station
objects crossing your sky now

PEGASUS DEB

Track PEGASUS DEB now!
10-day predictions


NORAD ID: 39927
Int'l Code: 1994-029AGA
Perigee: 554.0 km
Apogee: 656.3 km
Inclination: 81.8 °
Period: 96.6 minutes
Semi major axis: 6976 km
RCS: 0.0109 m2 (small)
Launch date: May 19, 1994
Source: United States (US)
Launch site: AIR FORCE WESTERN TEST RANGE (AFWTR)

Note: This is SATELLITE DEBRIS
aabbcc
Your satellite tracking list
Your tracking list is empty




NASA's NSSDC Master Catalog

Two Line Element Set (TLE):
1 39927U 94029AGA 21340.21613354  .00001005  00000-0  96845-4 0  9991
2 39927  81.8255 154.4116 0073275 357.4990   2.5848 14.89978085407584
Source of the keplerian elements: AFSPC